Skip Page Navigation
NASA JPL Caltech
NASA Logo - Jet Propulsion Laboratory + View the NASA Portal
+ Center for Near-Earth Object Studies
JPL Home Earth Solar System Stars & Galaxies Technology
JPL Solar System Dynamics
BODIES ORBITS EPHEMERIDES TOOLS PHYSICAL DATA DISCOVERY FAQ SITE MAP
JPL Small-Body Database Browser
Search: [ help ]  
103745 (2000 CC113)
Classification: Main-belt Asteroid          SPK-ID: 2103745
Ephemeris | Orbit Diagram | Orbital Elements | Mission Design | Physical Parameters | Discovery Circumstances ]

[ show orbit diagram ]
Orbital Elements at Epoch 2459200.5 (2020-Dec-17.0) TDB
Reference: JPL 24 (heliocentric ecliptic J2000)
 Element Value Uncertainty (1-sigma)   Units 
e .07523276819026134 3.0142e-08  
a 2.61171207490768 1.209e-08 au
q 2.415225745796444 8.0087e-08 au
i 1.360048180345835 4.5947e-06 deg
node 310.0779955244136 0.00016587 deg
peri 127.8850202409971 0.00017121 deg
M 22.64824172648565 3.9728e-05 deg
tp 2459103.511919737965
(2020-Sep-11.01191974)
0.00017021 TDB
period 1541.652076836537
4.22
1.0705e-05
2.931e-08
d
yr
n .2335157234301 1.6214e-09 deg/d
Q 2.808198404018916 1.2999e-08 au
  Orbit Determination Parameters
   # obs. used (total)      678  
   data-arc span      10585 days (28.98 yr)  
   first obs. used      1992-03-26  
   last obs. used      2021-03-19  
   planetary ephem.      DE441  
   SB-pert. ephem.      SB441-N16  
   condition code      0  
   norm. resid. RMS      .47389  
   source      ORB  
   producer      Otto Matic  
   solution date      2021-May-04 08:36:40  

Additional Information
 Earth MOID = 1.4305 au 
 Jupiter MOID = 2.35316 au 
 T_jup = 3.405 
[ hide covariance matrix ]
Orbital Elements at Epoch 2457482.5 (2016-Apr-04.0) TDB
Reference: JPL 24 (heliocentric ecliptic J2000)
 Element Value Uncertainty (1-sigma)   Units 
e .07363935035776664 2.9773e-08  
q 2.41915107022927 7.8844e-08 au
tp 2457556.670754754411
(2016-Jun-17.17075475)
0.00017737 TDB
node 310.340339063596 0.00016584 deg
peri 126.4786064455344 0.0001715 deg
i 1.359509282031828 4.5986e-06 deg
  Orbit Determination Parameters
   # obs. used (total)      678  
   data-arc span      10585 days (28.98 yr)  
   first obs. used      1992-03-26  
   last obs. used      2021-03-19  
   planetary ephem.      DE441  
   SB-pert. ephem.      SB441-N16  
   condition code      0  
   norm. resid. RMS      .47389  
   source      ORB  
   producer      Otto Matic  
   solution date      2021-May-04 08:36:40  

Additional Information
 Jupiter MOID = 2.35316 au 
 T_jup = 3.405 
Orbit Covariance (6×6)
  e q tp node peri i
e 8.864138231732331E-16 -2.323724353522834E-15 7.270170402065183E-13 -2.457480941701625E-15 1.889726494341072E-13 -5.008897195001794E-17
q -2.323724353522834E-15 6.216400588414192E-15 -2.210451146718668E-12 7.390390258288678E-15 -5.729531843950913E-13 2.109550269298114E-16
tp 7.270170402065183E-13 -2.210451146718668E-12 3.145914330213389E-8 -5.04314197420195E-11 7.768333255133423E-9 1.692908369011508E-12
node -2.457480941701625E-15 7.390390258288678E-15 -5.04314197420195E-11 2.750306906074778E-8 -2.750734003326863E-8 2.547301963858923E-10
peri 1.889726494341072E-13 -5.729531843950913E-13 7.768333255133423E-9 -2.750734003326863E-8 2.941343744318427E-8 -2.542546007177366E-10
i -5.008897195001794E-17 2.109550269298114E-16 1.692908369011508E-12 2.547301963858923E-10 -2.542546007177366E-10 2.114696773419674E-11

Ephemeris | Orbit Diagram | Orbital Elements | Mission Design | Physical Parameters | Discovery Circumstances ]

Physical Parameter Table
Parameter Symbol Value Units Sigma Reference Notes
absolute magnitude H 16.01   n/a MPCxxxxx  

103745 (2000 CC113)          Discovered 2000-Feb-08 by Spacewatch at Kitt Peak
Reference: 20051019/Numbers.arcLast Updated: 2005-10-26

Alternate Designations
 2000 CC113 = 1998 QC57 
Ephemeris | Orbit Diagram | Orbital Elements | Mission Design | Physical Parameters | Discovery Circumstances ]
ABOUT SSD CREDITS/AWARDS PRIVACY/COPYRIGHT GLOSSARY LINKS
FirstGov 2021-May-13 23:23 UT
(server date/time)  
NASA Home Page
Site Manager:   Ryan S. Park
Webmaster  Alan B. Chamberlin